"Pseudo-MPEC" for CCXEHH2

Created 2025 Feb 5 2:31:10 UT using Find_Orb

Click here for an explanation of pseudo-MPECs

 
 Astrometry: 
     CCXEHH2 1C2025 02 03.44441 10 35 14.59 +06 52 52.5    ~251H 20.3 GVNEOCPG96
     CCXEHH2 1C2025 02 03.45566 10 35 23.63 +06 53 20.3    ~251H 20.4 GVNEOCPG96
     CCXEHH2*1C2025 02 04.31712210 49 02.413+07 32 31.85   ~249H 20.59GVNEOCPG96
     CCXEHH2 1C2025 02 04.32229610 49 07.500+07 32 47.44   ~249H 20.96GVNEOCPG96
     CCXEHH2 1C2025 02 04.32747510 49 12.623+07 33 02.81   ~249H 20.19GVNEOCPG96
     CCXEHH2 1C2025 02 04.33267010 49 17.735+07 33 18.22   ~249H 20.14GVNEOCPG96
     CCXEHH2 KC2025 02 04.43954110 51 04.158+07 38 39.01   ~24B2 20.83GVNEOCPI52
     CCXEHH2 KC2025 02 04.44174010 51 06.404+07 38 45.67   ~24B2 19.92GVNEOCPI52
     CCXEHH2 KC2025 02 04.44394610 51 08.615+07 38 51.94   ~24B2 20.42GVNEOCPI52
     CCXEHH2 KC2025 02 04.44616110 51 10.861+07 38 58.16   ~24B2 20.34GVNEOCPI52
     CCXEHH2 1C2025 02 04.95072811 00 52.020+08 04 59.40   ~251l 20.2 GWNEOCP246
     CCXEHH2 1C2025 02 04.95098911 00 52.350+08 04 59.80   ~251l       WNEOCP246
     CCXEHH2 1C2025 02 04.95498511 00 57.070+08 05 13.90   ~251l       WNEOCP246
     CCXEHH2 1C2025 02 04.95526911 00 57.390+08 05 14.90   ~251l       WNEOCP246
     CCXEHH2 1C2025 02 04.95583711 00 58.020+08 05 16.80   ~251l       WNEOCP246
     CCXEHH2 1C2025 02 04.95612111 00 58.420+08 05 17.00   ~251l 20.3 GWNEOCP246
     CCXEHH2 KC2025 02 04.96158711 01 06.144+08 05 28.21   ~24Nl       WNEOCPJ95
     CCXEHH2 KC2025 02 04.97614311 01 23.285+08 06 17.03   ~24Nl 20.5 GWNEOCPJ95
     CCXEHH2 KC2025 02 04.99482311 01 43.90 +08 07 37.1    ~250l 20.4 GVNEOCPL01
     CCXEHH2 KC2025 02 04.99675511 01 46.15 +08 07 43.6    ~250l 20.6 GVNEOCPL01
     CCXEHH2 KC2025 02 04.99946911 01 49.35 +08 07 53.4    ~250l 20.6 GVNEOCPL01
     CCXEHH2 KB2025 02 05.00929711 02 02.82 +08 08 27.1    ~250l 20.5 GVNEOCPI93
     CCXEHH2 KB2025 02 05.01167811 02 05.62 +08 08 35.1    ~250l 20.3 GVNEOCPI93
     CCXEHH2 KB2025 02 05.01405011 02 08.42 +08 08 43.7    ~250l 19.9 GVNEOCPI93

Station data:
(246) Klet Observatory-KLENOT  (N48.863991 E14.284760)  Czech Republic.
   Observer J. Ticha. Measurer M. Tichy. 1.06-m f/2.7 reflector + 2048x2048
   CCD.
(G96) Mt. Lemmon Survey  (N32.442729 W110.788720)  US/Arizona.  Observer E.
   J. Christensen.  + 10K CCD.
(I52) Steward Observatory, Mt. Lemmon Station  (N32.442570 W110.788920)
   US/Arizona.  Observers T. A. Pruyne, B. M. Africano, E. J. Christensen, G.
   A. Farneth, D. C. Fuls, A. R. Gibbs, A. D. Grauer, H. Gröller, J. A.
   Johnson, R. A. Kowalski, S. M. Larson, G. J. Leonard, D. Rankin, R. L.
   Seaman, F. C. Shelly, K. W. Wierzchoś. 1.0-m prime focus + CCD.
(I93) St Pardon de Conques  (N44.558670 W0.202960)  France.  Observers F.
   Losse, W. D'Anna. Measurer F. Losse. 0.40-m f/3.7 reflector + CCD.
(J95) Great Shefford  (N51.474969 W1.447003)  UK/England.  Observer P.
   Birtwhistle. 0.41-m f/6.3 Schmidt-Cassegrain + CCD.
(L01) Višnjan Observatory, Tičan  (N45.290897 E13.749300)  Croatia.
   Observers K. Korlević, D. Pujagic, V. Dobos. Measurers D. Pujagic, K.
   Korlević. 1.0-m f/2.9 reflector + CCD.

Orbital elements:  CCXEHH2
   Perihelion 2025 Mar 28.61546 +/- 0.0454 TT = 14:46:15 (JD 2460763.11546)
Epoch 2025 Feb  5.0 TT = JDT 2460711.5   Earth MOID: 0.0153   Ma: 0.0453
M 331.46761195 +/- 0.12             (J2000 ecliptic)             AutoNEOCP
n   0.55278766 +/- 0.00199          Peri.   70.17619 +/- 0.016
a   1.47038304 +/- 0.00354          Node   136.65564 +/- 0.0038
e   0.4384336 +/- 0.00162           Incl.    6.98776 +/- 0.021
P   1.783/651.232d         H 25.89  G  0.15   U  8.6
q 0.82571769 +/- 0.000411    Q 2.11504840 +/- 0.00747
From 24 observations 2025 Feb. 3-5 (37.7 hr); mean residual 0".38
Residuals in arcseconds: 
250203 G96  .05+  .30-    250204 I52  .23-  .07+    250204 J95  .10-  .35+    
250203 G96  .01-  .22-    250204 I52  .19-  .33-    250204 J95  .28-  .33-    
250204 G96  .08+  .32+    250204 246  .57-  .21-    250204 L01  .56+  .31-    
250204 G96  .02-  .36+    250204 246  .19-  .69-    250204 L01  .40+  .35-    
250204 G96  .31+  .16+    250204 246  .68+  .10-    250204 L01  .75+  .25+    
250204 G96  .19+  .04-    250204 246  .51+  .06-    250205 I93  .11+  .30+    
250204 I52  .23-  .32+    250204 246  .03+  .09-    250205 I93  .08+  .17+    
250204 I52  .10+  .40+    250204 246  1.0+  .85-    250205 I93  .19+  .67+    

Ephemerides (geocentric):
Date (UTC) HH   RA             Dec           delta  r     elong  mag " sig PA
---- --------  ------------   ------------  ------ ------ -----  --- --------
2025 02 05 03  11 04 22.499   +08 16 49.89  .04816 1.0288 152.1 20.6 .500 146
2025 02 05 04  11 05 15.243   +08 19 14.00  .04791 1.0285 152.0 20.6 .517 144
2025 02 05 05  11 06 08.533   +08 21 39.18  .04767 1.0282 151.8 20.6 .536 143
2025 02 05 06  11 07 02.375   +08 24 05.44  .04742 1.0280 151.7 20.5 .554 142
2025 02 05 07  11 07 56.776   +08 26 32.78  .04718 1.0277 151.5 20.5 .574 141
2025 02 05 08  11 08 51.743   +08 29 01.20  .04694 1.0274 151.4 20.5 .594 139
2025 02 05 09  11 09 47.284   +08 31 30.70  .04670 1.0272 151.2 20.5 .614 138
2025 02 05 10  11 10 43.406   +08 34 01.28  .04646 1.0269 151.0 20.5 .635 137
2025 02 05 11  11 11 40.116   +08 36 32.95  .04622 1.0266 150.9 20.5 .657 136
2025 02 05 12  11 12 37.421   +08 39 05.71  .04598 1.0264 150.7 20.5 .680 135
2025 02 05 13  11 13 35.329   +08 41 39.55  .04574 1.0261 150.5 20.5 .703 134
2025 02 05 14  11 14 33.848   +08 44 14.47  .04550 1.0258 150.3 20.5 .727 133
2025 02 05 15  11 15 32.984   +08 46 50.48  .04527 1.0256 150.2 20.5 .752 132
2025 02 05 16  11 16 32.746   +08 49 27.57  .04503 1.0253 150.0 20.5 .777 131
2025 02 05 17  11 17 33.142   +08 52 05.74  .04480 1.0250 149.8 20.5 .803 130
2025 02 05 18  11 18 34.179   +08 54 44.98  .04456 1.0247 149.6 20.5 .830 129
2025 02 05 19  11 19 35.865   +08 57 25.31  .04433 1.0245 149.4 20.5 .857 129
2025 02 05 20  11 20 38.208   +09 00 06.70  .04410 1.0242 149.2 20.5 .886 128
2025 02 05 21  11 21 41.217   +09 02 49.16  .04387 1.0239 149.0 20.4 .915 127
2025 02 05 22  11 22 44.898   +09 05 32.68  .04364 1.0237 148.8 20.4 .945 126
2025 02 05 23  11 23 49.261   +09 08 17.26  .04341 1.0234 148.6 20.4 .975 125
2025 02 06 00  11 24 54.313   +09 11 02.89  .04318 1.0231 148.4 20.4 1.01 125
2025 02 06 01  11 26 00.063   +09 13 49.57  .04295 1.0229 148.2 20.4 1.04 124
2025 02 06 02  11 27 06.518   +09 16 37.28  .04273 1.0226 148.0 20.4 1.07 123
2025 02 06 03  11 28 13.688   +09 19 26.02  .04250 1.0223 147.8 20.4 1.11 123
2025 02 06 04  11 29 21.581   +09 22 15.79  .04228 1.0221 147.6 20.4 1.14 122
2025 02 06 05  11 30 30.205   +09 25 06.56  .04206 1.0218 147.4 20.4 1.18 121
2025 02 06 06  11 31 39.569   +09 27 58.33  .04183 1.0215 147.1 20.4 1.21 121
2025 02 06 07  11 32 49.680   +09 30 51.09  .04161 1.0213 146.9 20.4 1.25 120
2025 02 06 08  11 34 00.548   +09 33 44.83  .04139 1.0210 146.7 20.4 1.29 120
2025 02 06 09  11 35 12.182   +09 36 39.52  .04118 1.0207 146.4 20.4 1.33 119
2025 02 06 10  11 36 24.589   +09 39 35.17  .04096 1.0205 146.2 20.4 1.37 119
2025 02 06 11  11 37 37.778   +09 42 31.75  .04074 1.0202 146.0 20.4 1.41 118
2025 02 06 12  11 38 51.758   +09 45 29.25  .04053 1.0199 145.7 20.4 1.45 117
2025 02 06 13  11 40 06.538   +09 48 27.64  .04031 1.0197 145.5 20.4 1.50 117
2025 02 06 14  11 41 22.126   +09 51 26.92  .04010 1.0194 145.2 20.4 1.54 116
2025 02 06 15  11 42 38.531   +09 54 27.05  .03989 1.0191 145.0 20.3 1.59 116
2025 02 06 16  11 43 55.761   +09 57 28.03  .03968 1.0189 144.7 20.3 1.63 116
2025 02 06 17  11 45 13.825   +10 00 29.82  .03947 1.0186 144.5 20.3 1.68 115
2025 02 06 18  11 46 32.731   +10 03 32.41  .03926 1.0183 144.2 20.3 1.73 115
2025 02 06 19  11 47 52.489   +10 06 35.77  .03906 1.0181 143.9 20.3 1.78 114
2025 02 06 20  11 49 13.106   +10 09 39.87  .03885 1.0178 143.7 20.3 1.83 114
2025 02 06 21  11 50 34.590   +10 12 44.69  .03865 1.0175 143.4 20.3 1.88 113
2025 02 06 22  11 51 56.951   +10 15 50.20  .03845 1.0173 143.1 20.3 1.94 113
2025 02 06 23  11 53 20.197   +10 18 56.36  .03825 1.0170 142.8 20.3 1.99 113
2025 02 07 00  11 54 44.335   +10 22 03.15  .03805 1.0167 142.5 20.3 2.05 112
2025 02 07 01  11 56 09.374   +10 25 10.53  .03785 1.0165 142.2 20.3 2.11 112
2025 02 07 02  11 57 35.322   +10 28 18.47  .03766 1.0162 142.0 20.3 2.16 111